When you browse on this site, cookies collect data to enhance your experience and personalize the content and advertising you see.
Visit our Privacy Policy to learn more. By continuing to use the site, you agree to this use of cookies and data.
  • în România
  • Lista ţărilor
  • Pe 7 zile
  • Temperatura apei
  • Hartă satelitară
  • Meteo pe hartă
  • Widget-uri
  • user-avatar
    Intrare

    Meteo pe oră la Maloe Vishene

    Astăzi, 21 Martie, Joi

    Timp Temperatura Precipitaţii Vânt Presiune Umiditate
    00:00 -3°C° 0 mm 2 m/s 743 mmHg 90%
    01:00 -4°C° 0 mm 3 m/s 742 mmHg 89%
    02:00 -4°C° 0 mm 3 m/s 742 mmHg 89%
    03:00 -4°C° 0.1 mm 3 m/s 741 mmHg 90%
    04:00 -4°C° 0.1 mm 3 m/s 741 mmHg 91%
    05:00 -2°C° 0.1 mm 3 m/s 741 mmHg 92%
    06:00 -2°C° 0.1 mm 3 m/s 741 mmHg 91%
    07:00 -1°C° 0.1 mm 3 m/s 741 mmHg 90%
    08:00 0°C° 0 mm 3 m/s 741 mmHg 89%
    09:00 0°C° 0.1 mm 3 m/s 741 mmHg 86%
    10:00 0°C° 0.1 mm 3 m/s 741 mmHg 84%
    11:00 +1°C° 0.1 mm 3 m/s 741 mmHg 82%
    12:00 +1°C° 0 mm 3 m/s 741 mmHg 81%
    13:00 +1°C° 0 mm 3 m/s 741 mmHg 80%
    14:00 +2°C° 0 mm 3 m/s 742 mmHg 79%
    15:00 +2°C° 0 mm 2 m/s 742 mmHg 82%
    16:00 +2°C° 0 mm 2 m/s 742 mmHg 84%
    17:00 +2°C° 0 mm 2 m/s 742 mmHg 86%
    18:00 +1°C° 0 mm 2 m/s 741 mmHg 88%
    19:00 +1°C° 0 mm 2 m/s 741 mmHg 90%
    20:00 -1°C° 0 mm 2 m/s 741 mmHg 93%
    21:00 -1°C° 0 mm 2 m/s 741 mmHg 92%
    22:00 -1°C° 0 mm 2 m/s 740 mmHg 92%
    23:00 -1°C° 0 mm 2 m/s 740 mmHg 92%

    Mâine, 22 Martie, Vineri

    Timp Temperatura Precipitaţii Vânt Presiune Umiditate
    00:00 -1°C° 0.1 mm 3 m/s 739 mmHg 92%
    01:00 0°C° 0.1 mm 3 m/s 738 mmHg 92%
    02:00 0°C° 0.1 mm 3 m/s 737 mmHg 91%
    03:00 0°C° 0.8 mm 3 m/s 736 mmHg 91%
    04:00 0°C° 0.8 mm 4 m/s 735 mmHg 91%
    05:00 0°C° 0.8 mm 4 m/s 733 mmHg 91%
    06:00 0°C° 1 mm 5 m/s 733 mmHg 89%
    07:00 -1°C° 1 mm 6 m/s 733 mmHg 87%
    08:00 -1°C° 1 mm 7 m/s 733 mmHg 85%
    09:00 -1°C° 0.2 mm 7 m/s 734 mmHg 81%
    10:00 -1°C° 0.2 mm 7 m/s 734 mmHg 76%
    11:00 -2°C° 0.2 mm 7 m/s 735 mmHg 72%
    12:00 -2°C° 0 mm 7 m/s 736 mmHg 72%
    13:00 -2°C° 0 mm 7 m/s 736 mmHg 72%
    14:00 -2°C° 0 mm 7 m/s 737 mmHg 72%
    15:00 -2°C° 0.1 mm 6 m/s 737 mmHg 74%
    16:00 -3°C° 0.1 mm 6 m/s 738 mmHg 77%
    17:00 -3°C° 0.1 mm 6 m/s 738 mmHg 80%
    18:00 -2°C° 0.1 mm 5 m/s 739 mmHg 82%
    19:00 -2°C° 0.1 mm 5 m/s 739 mmHg 83%
    20:00 -2°C° 0.1 mm 5 m/s 740 mmHg 85%
    21:00 -1°C° 0.3 mm 5 m/s 740 mmHg 85%
    22:00 -1°C° 0.3 mm 5 m/s 741 mmHg 85%
    23:00 -1°C° 0.3 mm 5 m/s 741 mmHg 85%

    Poimâine, 23 Martie, Sâmbătă

    Timp Temperatura Precipitaţii Vânt Presiune Umiditate
    00:00 -1°C° 0.1 mm 5 m/s 742 mmHg 86%
    01:00 -1°C° 0.1 mm 5 m/s 742 mmHg 86%
    02:00 -2°C° 0.1 mm 4 m/s 743 mmHg 87%
    03:00 -2°C° 0 mm 4 m/s 744 mmHg 88%
    04:00 -2°C° 0 mm 4 m/s 744 mmHg 89%
    05:00 -1°C° 0 mm 3 m/s 745 mmHg 90%
    06:00 -1°C° 0 mm 3 m/s 745 mmHg 91%
    07:00 -1°C° 0 mm 3 m/s 746 mmHg 91%
    08:00 +1°C° 0 mm 2 m/s 746 mmHg 91%
    09:00 +1°C° 0 mm 2 m/s 746 mmHg 89%
    10:00 +3°C° 0 mm 1 m/s 746 mmHg 87%
    11:00 +3°C° 0 mm 1 m/s 746 mmHg 85%
    12:00 +3°C° 0 mm 1 m/s 746 mmHg 84%
    13:00 +3°C° 0 mm 1 m/s 746 mmHg 83%
    14:00 +4°C° 0 mm 1 m/s 745 mmHg 82%
    15:00 +2°C° 0 mm 2 m/s 745 mmHg 83%
    16:00 +2°C° 0 mm 2 m/s 744 mmHg 84%
    17:00 +2°C° 0 mm 2 m/s 744 mmHg 85%
    18:00 0°C° 0 mm 3 m/s 743 mmHg 86%
    19:00 0°C° 0 mm 3 m/s 743 mmHg 87%
    20:00 -1°C° 0 mm 3 m/s 742 mmHg 88%
    21:00 -2°C° 0 mm 4 m/s 742 mmHg 87%
    22:00 -2°C° 0 mm 4 m/s 741 mmHg 86%
    23:00 -1°C° 0 mm 4 m/s 740 mmHg 85%

    24 Martie, Duminică

    Timp Temperatura Precipitaţii Vânt Presiune Umiditate
    00:00 -1°C° 0.5 mm 4 m/s 739 mmHg 86%
    01:00 -1°C° 0.5 mm 4 m/s 739 mmHg 87%
    02:00 -1°C° 0.5 mm 4 m/s 738 mmHg 88%
    03:00 -1°C° 0.6 mm 4 m/s 737 mmHg 89%
    04:00 -1°C° 0.6 mm 4 m/s 737 mmHg 90%
    05:00 -1°C° 0.6 mm 4 m/s 736 mmHg 91%
    06:00 0°C° 0 mm 3 m/s 736 mmHg 91%
    07:00 0°C° 0 mm 3 m/s 736 mmHg 92%
    08:00 +1°C° 0 mm 3 m/s 736 mmHg 92%
    09:00 0°C° 0.2 mm 4 m/s 736 mmHg 89%
    10:00 +1°C° 0.2 mm 4 m/s 735 mmHg 86%
    11:00 +1°C° 0.2 mm 5 m/s 735 mmHg 82%
    12:00 +1°C° 0.1 mm 5 m/s 735 mmHg 78%
    13:00 +1°C° 0.1 mm 5 m/s 735 mmHg 74%
    14:00 +2°C° 0.1 mm 5 m/s 735 mmHg 70%
    15:00 +1°C° 0.1 mm 4 m/s 735 mmHg 71%
    16:00 0°C° 0.1 mm 4 m/s 735 mmHg 73%
    17:00 0°C° 0.1 mm 3 m/s 735 mmHg 74%
    18:00 -1°C° 0 mm 3 m/s 735 mmHg 78%
    19:00 -2°C° 0 mm 3 m/s 736 mmHg 81%
    20:00 -3°C° 0 mm 2 m/s 736 mmHg 85%
    21:00 -3°C° 0 mm 2 m/s 736 mmHg 85%
    22:00 -4°C° 0 mm 3 m/s 736 mmHg 85%
    23:00 -4°C° 0 mm 3 m/s 736 mmHg 86%

    25 Martie, Luni

    Timp Temperatura Precipitaţii Vânt Presiune Umiditate
    00:00 -5°C° 0 mm 3 m/s 736 mmHg 86%
    01:00 -5°C° 0 mm 3 m/s 736 mmHg 87%
    02:00 -5°C° 0 mm 3 m/s 736 mmHg 87%
    03:00 -5°C° 0 mm 3 m/s 736 mmHg 86%
    04:00 -5°C° 0 mm 4 m/s 736 mmHg 86%
    05:00 -4°C° 0 mm 4 m/s 736 mmHg 85%
    06:00 -4°C° 0 mm 4 m/s 736 mmHg 83%
    07:00 -4°C° 0 mm 4 m/s 736 mmHg 81%
    08:00 -4°C° 0 mm 4 m/s 736 mmHg 79%
    09:00 -3°C° 0 mm 4 m/s 736 mmHg 75%
    10:00 -1°C° 0 mm 3 m/s 737 mmHg 71%
    11:00 0°C° 0 mm 3 m/s 737 mmHg 67%
    12:00 0°C° 0 mm 3 m/s 736 mmHg 66%
    13:00 +1°C° 0 mm 3 m/s 736 mmHg 65%
    14:00 +1°C° 0 mm 3 m/s 736 mmHg 64%
    15:00 +2°C° 0 mm 2 m/s 736 mmHg 69%
    16:00 +2°C° 0 mm 2 m/s 736 mmHg 75%
    17:00 +3°C° 0 mm 1 m/s 735 mmHg 80%
    18:00 +2°C° 0.1 mm 1 m/s 735 mmHg 81%
    19:00 -1°C° 0.1 mm 2 m/s 735 mmHg 83%
    20:00 -1°C° 0.1 mm 2 m/s 735 mmHg 85%
    21:00 -1°C° 0.1 mm 2 m/s 735 mmHg 85%
    22:00 -1°C° 0.1 mm 3 m/s 735 mmHg 85%
    23:00 -2°C° 0.1 mm 3 m/s 735 mmHg 85%

    26 Martie, Marţi

    Timp Temperatura Precipitaţii Vânt Presiune Umiditate
    00:00 -2°C° 0.5 mm 3 m/s 735 mmHg 86%
    01:00 -4°C° 0.5 mm 3 m/s 736 mmHg 88%
    02:00 -4°C° 0.5 mm 3 m/s 736 mmHg 89%
    03:00 -5°C° 0.1 mm 3 m/s 736 mmHg 88%
    04:00 -6°C° 0.1 mm 3 m/s 737 mmHg 86%
    05:00 -6°C° 0.1 mm 2 m/s 737 mmHg 85%
    06:00 -5°C° 0 mm 2 m/s 737 mmHg 82%
    07:00 -6°C° 0 mm 3 m/s 738 mmHg 80%
    08:00 -6°C° 0 mm 3 m/s 738 mmHg 77%
    09:00 -4°C° 0 mm 3 m/s 739 mmHg 71%
    10:00 -2°C° 0 mm 2 m/s 739 mmHg 64%
    11:00 -1°C° 0 mm 2 m/s 739 mmHg 58%
    12:00 -1°C° 0 mm 3 m/s 739 mmHg 56%
    13:00 0°C° 0 mm 3 m/s 738 mmHg 54%
    14:00 0°C° 0 mm 3 m/s 738 mmHg 52%
    15:00 0°C° 0 mm 3 m/s 737 mmHg 57%
    16:00 -1°C° 0 mm 2 m/s 737 mmHg 63%
    17:00 -1°C° 0 mm 2 m/s 736 mmHg 68%
    18:00 -1°C° 0.1 mm 3 m/s 736 mmHg 71%
    19:00 -2°C° 0.1 mm 3 m/s 735 mmHg 73%
    20:00 -2°C° 0.1 mm 3 m/s 735 mmHg 76%
    21:00 -2°C° 0.2 mm 3 m/s 734 mmHg 79%
    22:00 -4°C° 0.2 mm 3 m/s 733 mmHg 81%
    23:00 -4°C° 0.2 mm 3 m/s 733 mmHg 84%
    Arată mai mult